Weather History for KMDT - July, 2013

Change the Weather History Date:

Friday, July 26, 2013

  Actual Average Record
Temperature  
Mean Temperature 73 °F 76 °F  
Max Temperature 83 °F 85 °F 100 °F (1966)
Min Temperature 62 °F 66 °F 53 °F (1976)
Degree Days  
Heating Degree Days 0 0  
Month to date heating degree days 0 0  
Since 1 June heating degree days 2 18  
Since 1 July heating degree days 0 0  
Cooling Degree Days 8 11  
Month to date cooling degree days 370 284  
Year to date cooling degree days 677 562  
Since 1 June cooling degree days 594 497  
Growing Degree Days 22 (Base 50)    
Moisture  
Dew Point 57 °F    
Average Humidity 64    
Maximum Humidity 90    
Minimum Humidity 37    
Precipitation  
Precipitation 0.00 in 0.15 in 1.17 in (1991)
Month to date precipitation 4.03 3.91  
Year to date precipitation 19.96 23.04  
Sea Level Pressure  
Sea Level Pressure 30.05 in    
Wind  
Wind Speed 5 mph (WNW)    
Max Wind Speed 13 mph    
Max Gust Speed 16 mph    
Visibility 10 miles    
Events      
T = Trace of Precipitation, MM = Missing Value Source: NWS Daily Summary

Daily Weather History Graph

Daily Weather History Graph

Search for Another Location

Airport or City:

Trip Planner

Search our weather history database for the weather conditions in past years. The results will help you decide how hot, cold, wet, or windy it might be!

Date:

Astronomy

Jul. 26, 2013 Rise Set
Actual Time 5:59 AM EDT 8:26 PM EDT
Civil Twilight 5:28 AM EDT 8:57 PM EDT
Nautical Twilight 4:50 AM EDT 9:36 PM EDT
Astronomical Twilight 4:07 AM EDT 10:18 PM EDT
Moon 10:39 PM EDT (7/26) 10:33 AM EDT (7/26)
Length of Visible Light 15h 29m
Length of Day
14h 27m
Waning Gibbous, 80% of the Moon is Illuminated
Jul 26
Waning Gibbous
Jul 29
Last Quarter
Aug 6
New
Aug 14
First Quarter
Aug 20
Full

Hourly Weather History & Observations

Time (EDT) Temp. Heat Index Dew Point Humidity Pressure Visibility Wind Dir Wind Speed Gust Speed Precip Events Conditions
12:56 AM 64.0 °F - 59.0 °F 84% 30.05 in 10.0 mi Calm Calm - N/A   Scattered Clouds
1:56 AM 64.9 °F - 60.1 °F 84% 30.05 in 10.0 mi NNW 3.5 mph - N/A   Mostly Cloudy
2:56 AM 64.9 °F - 59.0 °F 81% 30.04 in 10.0 mi North 3.5 mph - N/A   Mostly Cloudy
3:56 AM 63.0 °F - 59.0 °F 87% 30.05 in 10.0 mi North 4.6 mph - N/A   Partly Cloudy
4:56 AM 63.0 °F - 59.0 °F 87% 30.05 in 10.0 mi NNW 3.5 mph - N/A   Partly Cloudy
5:56 AM 62.1 °F - 59.0 °F 90% 30.06 in 10.0 mi NNW 3.5 mph - N/A   Partly Cloudy
6:56 AM 63.0 °F - 59.0 °F 87% 30.06 in 10.0 mi NW 6.9 mph - N/A   Clear
7:56 AM 66.0 °F - 57.9 °F 75% 30.07 in 10.0 mi NW 5.8 mph - N/A   Clear
8:56 AM 69.1 °F - 57.9 °F 68% 30.09 in 10.0 mi WNW 5.8 mph - N/A   Clear
9:56 AM 72.0 °F - 57.0 °F 59% 30.09 in 10.0 mi WNW 8.1 mph - N/A   Clear
10:56 AM 73.9 °F - 55.9 °F 53% 30.08 in 10.0 mi West 5.8 mph - N/A   Clear
11:56 AM 75.9 °F - 50.0 °F 40% 30.07 in 10.0 mi NNW 8.1 mph - N/A   Clear
12:56 PM 78.1 °F - 54.0 °F 43% 30.06 in 10.0 mi West 10.4 mph - N/A   Clear
1:56 PM 79.0 °F - 52.0 °F 39% 30.05 in 10.0 mi West 5.8 mph - N/A   Partly Cloudy
2:56 PM 80.1 °F 80.0 °F 54.0 °F 40% 30.04 in 10.0 mi West 3.5 mph - N/A   Partly Cloudy
3:56 PM 81.0 °F 80.5 °F 54.0 °F 39% 30.03 in 10.0 mi WSW 3.5 mph - N/A   Partly Cloudy
4:56 PM 82.0 °F 81.2 °F 53.1 °F 37% 30.02 in 10.0 mi Calm Calm - N/A   Partly Cloudy
5:56 PM 82.0 °F 81.3 °F 54.0 °F 38% 30.01 in 10.0 mi Calm Calm - N/A   Partly Cloudy
6:56 PM 80.1 °F 80.2 °F 55.9 °F 43% 30.01 in 10.0 mi SSE 3.5 mph - N/A   Partly Cloudy
7:56 PM 77.0 °F - 60.1 °F 56% 30.01 in 10.0 mi South 4.6 mph - N/A   Partly Cloudy
8:56 PM 75.0 °F - 61.0 °F 62% 30.02 in 10.0 mi SSW 6.9 mph - N/A   Partly Cloudy
9:56 PM 73.9 °F - 60.1 °F 62% 30.03 in 10.0 mi SW 6.9 mph - N/A   Partly Cloudy
10:56 PM 73.0 °F - 59.0 °F 61% 30.04 in 10.0 mi South 5.8 mph - N/A   Partly Cloudy
11:56 PM 66.9 °F - 59.0 °F 76% 30.04 in 10.0 mi Calm Calm - N/A   Scattered Clouds